Погода в Тетово

Северная Македония     42°00′43″N   20°58′20″E
темп.,
°C
ветер,
м/с
пор.,
м/с
влажн.,
%
обл.,
%
осадки,
мм/ч
давл.,
гПа
погр.,
м
19 января, ср
ср1901:00−6сз32525 0.0 103633
04:00−6сз32520 0.0 103722
07:00−6зсз22510 0.0 103721
10:00−2юв10465 0.0 1035350
13:00+1юв21450 0.0 1031424
16:00−2юв11611 0.0 103010
19:00−3зсз22630 0.0 103011
22:00−3зсз21510 0.0 102911
20 января, чт
чт2001:00−3зсз22470 0.0 102812
04:00−3зсз22460 0.0 102613
07:00−3зсз22430 0.0 102615
10:00+2вюв11480 0.0 1024228
13:00+4вюв11533 0.0 1021355
16:00+1сз11691 0.0 102011
19:00−1зсз22692 0.0 102017
22:00−1з22725 0.0 101913
21 января, пт
пт2101:000зсз1181100 0.4 101813
04:00−1всв3499100 3.6 1018185
07:00−3всв3497100 9.6 1023287
10:00−4в2294100 2.1 1025317
13:00−4вюв2294100 4.2 1023429
16:00−4вюв2294100 0.9 1023240
19:00−6ссв119796 1.8 102542
22:00−8сз228971 0.2 102716
22 января, сб
сб2201:00−12зсз33715 0.3 102715
04:00−12зсз4362100 0.0 102619
07:00−10сз32690 0.0 102418
10:00−3св12570 0.0 1022283
13:00−2сз165120 0.0 10191701
16:00−6сз22755 0.0 102018
19:00−7зсз3274100 0.0 102132
22:00−7зсз228499 0.1 102127
23 января, вс
вс2301:00−8ссз2291100 0.5 102256
04:00−8сз2391100 1.2 1024113
07:00−12сз33825 1.8 102826
10:00−7ссз126390 0.1 1027957
13:00−6сз126367 0.3 10261100
16:00−8ссз228197 0.2 102723
19:00−12зсз328017 0.3 103019
22:00−11зсз2284100 0.1 103027